TimeEDT,TemperatureF,Dew PointF,Humidity,Sea Level PressureIn,VisibilityMPH,Wind Direction,Wind SpeedMPH,Gust SpeedMPH,PrecipitationIn,Events,Conditions,WindDirDegrees,DateUTC
12:52 AM,75.0,70.0,84,30.20,10.0,SSW,10.4,-,N/A,,Overcast,210,2013-07-03 04:52:00
1:52 AM,73.9,69.1,85,30.20,10.0,SSW,4.6,-,N/A,,Overcast,200,2013-07-03 05:52:00
2:52 AM,73.9,70.0,87,30.19,10.0,South,5.8,-,N/A,,Overcast,180,2013-07-03 06:52:00
3:52 AM,73.9,70.0,87,30.19,10.0,South,9.2,-,N/A,,Overcast,180,2013-07-03 07:52:00
3:59 AM,75.2,69.8,83,30.19,10.0,SSW,9.2,-,N/A,,Overcast,200,2013-07-03 07:59:00
4:48 AM,73.4,69.8,88,30.19,10.0,South,6.9,-,0.01,Rain,Light Rain,180,2013-07-03 08:48:00
4:52 AM,73.9,70.0,87,30.19,10.0,South,5.8,-,0.01,Rain,Light Rain,190,2013-07-03 08:52:00
5:19 AM,73.4,69.8,88,30.20,7.0,South,8.1,-,0.00,Rain,Light Rain,170,2013-07-03 09:19:00
5:52 AM,75.0,70.0,84,30.20,10.0,South,5.8,-,0.01,,Overcast,180,2013-07-03 09:52:00
6:36 AM,75.2,69.8,83,30.21,10.0,South,6.9,-,N/A,,Overcast,190,2013-07-03 10:36:00
6:52 AM,75.0,71.1,87,30.22,10.0,SSW,15.0,-,N/A,,Overcast,200,2013-07-03 10:52:00
7:52 AM,75.9,72.0,87,30.23,10.0,South,9.2,-,0.00,Rain,Light Rain,180,2013-07-03 11:52:00
8:30 AM,75.2,71.6,89,30.23,1.8,South,6.9,-,0.03,Rain,Light Rain,170,2013-07-03 12:30:00
8:52 AM,75.9,73.0,91,30.23,6.0,South,6.9,-,0.12,Rain,Light Rain,180,2013-07-03 12:52:00
9:52 AM,77.0,73.0,88,30.25,10.0,SSW,8.1,-,0.00,,Overcast,200,2013-07-03 13:52:00
10:05 AM,78.8,73.4,83,30.24,4.0,SSW,6.9,-,0.00,Rain,Light Rain,200,2013-07-03 14:05:00
10:21 AM,78.8,73.4,83,30.24,10.0,South,6.9,-,0.01,,Overcast,180,2013-07-03 14:21:00
10:52 AM,80.1,73.0,79,30.24,10.0,SSW,6.9,-,0.01,,Overcast,200,2013-07-03 14:52:00
11:52 AM,84.0,73.9,72,30.23,10.0,SW,13.8,-,N/A,,Overcast,220,2013-07-03 15:52:00
12:30 PM,84.2,71.6,66,30.22,10.0,WSW,8.1,-,N/A,,Mostly Cloudy,240,2013-07-03 16:30:00
12:52 PM,86.0,73.0,65,30.22,10.0,South,10.4,-,N/A,,Mostly Cloudy,190,2013-07-03 16:52:00
1:24 PM,84.2,71.6,66,30.21,10.0,SSW,10.4,-,N/A,,Mostly Cloudy,210,2013-07-03 17:24:00
1:52 PM,84.9,73.9,69,30.21,10.0,South,12.7,-,N/A,,Mostly Cloudy,170,2013-07-03 17:52:00
2:52 PM,87.1,75.0,67,30.19,10.0,South,13.8,-,N/A,,Mostly Cloudy,180,2013-07-03 18:52:00
3:52 PM,84.0,71.1,65,30.20,10.0,SSW,15.0,-,N/A,,Mostly Cloudy,200,2013-07-03 19:52:00
4:15 PM,82.4,71.6,70,30.20,10.0,SSW,12.7,-,N/A,,Mostly Cloudy,200,2013-07-03 20:15:00
4:42 PM,84.2,73.4,70,30.20,10.0,South,10.4,-,N/A,,Mostly Cloudy,190,2013-07-03 20:42:00
4:52 PM,84.9,73.0,67,30.20,10.0,South,13.8,-,N/A,,Mostly Cloudy,180,2013-07-03 20:52:00
5:52 PM,86.0,73.9,67,30.17,10.0,SSW,13.8,18.4,N/A,,Mostly Cloudy,200,2013-07-03 21:52:00
6:52 PM,82.9,73.9,74,30.21,10.0,South,12.7,-,N/A,,Overcast,180,2013-07-03 22:52:00
7:52 PM,82.0,73.9,76,30.20,10.0,South,11.5,-,N/A,,Overcast,170,2013-07-03 23:52:00
8:52 PM,80.1,73.0,79,30.21,10.0,South,13.8,-,N/A,,Overcast,180,2013-07-04 00:52:00
9:52 PM,79.0,73.0,82,30.23,10.0,SSW,10.4,-,N/A,,Mostly Cloudy,200,2013-07-04 01:52:00
10:52 PM,78.1,72.0,81,30.24,10.0,South,9.2,-,N/A,,Mostly Cloudy,190,2013-07-04 02:52:00
11:52 PM,77.0,72.0,84,30.24,10.0,SSW,10.4,-,N/A,,Scattered Clouds,200,2013-07-04 03:52:00